Weather History for Clarion, IA

Change the Weather History Date:

Saturday, February 2, 2013

  Actual Average Record
Temperature  
Mean Temperature 18 °F -  
Max Temperature 30 °F 24 °F 53 °F (2006)
Min Temperature 6 °F 5 °F -22 °F (1965)
Degree Days  
Heating Degree Days 47    
Moisture  
Dew Point 10 °F    
Average Humidity 77    
Maximum Humidity 93    
Minimum Humidity 62    
Precipitation  
Precipitation 0.00 in - - ()
Sea Level Pressure  
Sea Level Pressure 30.05 in    
Wind  
Wind Speed 12 mph (WNW)    
Max Wind Speed 31 mph    
Max Gust Speed 40 mph    
Visibility 9 miles    
Events Snow    
Averages and records for this station are not official NWS values.
T = Trace of Precipitation, MM = Missing Value Source: NWS Daily Summary

Daily Weather History Graph

Daily Weather History Graph

Search for Another Location

Airport:

Trip Planner

Search our weather history database for the weather conditions in past years. The results will help you decide how hot, cold, wet, or windy it might be!

Date:

Astronomy

Feb. 02, 2013 Rise Set
Actual Time 7:28 AM CST 5:30 PM CST
Civil Twilight 6:58 AM CST 5:59 PM CST
Nautical Twilight 6:24 AM CST 6:33 PM CST
Astronomical Twilight 5:51 AM CST 7:06 PM CST
Moon No Moon Rise 10:28 AM CST (2/2)
Length of Visible Light 11h 01m
Length of Day
10h 01m
Waning Gibbous, 59% of the Moon is Illuminated
Feb 2
Waning Gibbous
Feb 3
Last Quarter
Feb 10
New
Feb 17
First Quarter
Feb 25
Full

Hourly Weather History & Observations

Time (CST) Temp. Windchill Dew Point Humidity Pressure Visibility Wind Dir Wind Speed Gust Speed Precip Events Conditions
12:15 AM 21.2 °F 10.9 °F 17.6 °F 86% 29.96 in 10.0 mi SW 9.2 mph - N/A   Overcast
12:35 AM 21.2 °F 10.9 °F 15.8 °F 80% 29.96 in 10.0 mi WSW 9.2 mph 16.1 mph N/A   Mostly Cloudy
12:55 AM 19.4 °F 8.6 °F 14.0 °F 80% 29.96 in - West 9.2 mph - N/A   Partly Cloudy
1:15 AM 17.6 °F 7.3 °F 12.2 °F 79% 29.97 in 10.0 mi West 8.1 mph - N/A   Clear
1:35 AM 17.6 °F 5.0 °F 14.0 °F 86% 29.98 in 10.0 mi WNW 11.5 mph - N/A   Clear
1:55 AM 17.6 °F 4.3 °F 14.0 °F 86% 29.99 in 10.0 mi NW 12.7 mph - N/A   Mostly Cloudy
2:15 AM 19.4 °F 5.5 °F 14.0 °F 80% 30.00 in 10.0 mi NW 15.0 mph - N/A   Overcast
2:35 AM 17.6 °F 4.3 °F 14.0 °F 86% 30.01 in 10.0 mi NW 12.7 mph - N/A   Overcast
2:55 AM 17.6 °F 2.7 °F 12.2 °F 79% 30.02 in 10.0 mi NNW 16.1 mph - N/A   Overcast
3:15 AM 17.6 °F 2.7 °F 12.2 °F 79% 30.01 in 10.0 mi NNW 16.1 mph - N/A   Overcast
3:35 AM 17.6 °F 1.3 °F 10.4 °F 73% 30.02 in 10.0 mi NNW 19.6 mph - N/A   Overcast
3:55 AM 15.8 °F 1.4 °F 12.2 °F 86% 30.02 in 10.0 mi NNW 13.8 mph 19.6 mph N/A Snow Light Snow
4:15 AM 15.8 °F 0.9 °F 10.4 °F 79% 30.03 in 10.0 mi NNW 15.0 mph 23.0 mph N/A   Overcast
4:35 AM 14.0 °F -1.4 °F 8.6 °F 79% 30.05 in 10.0 mi NNW 15.0 mph 21.9 mph N/A   Mostly Cloudy
4:55 AM 14.0 °F -0.8 °F 8.6 °F 79% 30.05 in 10.0 mi NNW 13.8 mph 19.6 mph N/A   Overcast
5:15 AM 14.0 °F -1.4 °F 8.6 °F 79% 30.06 in 10.0 mi NNW 15.0 mph - N/A   Mostly Cloudy
5:35 AM 12.2 °F -1.8 °F 6.8 °F 79% 30.08 in 10.0 mi NNW 11.5 mph 18.4 mph N/A   Mostly Cloudy
5:55 AM 12.2 °F -2.5 °F 5.0 °F 73% 30.09 in 10.0 mi NNW 12.7 mph 19.6 mph N/A   Mostly Cloudy
6:15 AM 10.4 °F -6.0 °F 5.0 °F 79% 30.10 in 10.0 mi NNW 15.0 mph 21.9 mph N/A   Scattered Clouds
6:35 AM 10.4 °F -5.4 °F 3.2 °F 73% 30.11 in 10.0 mi NNW 13.8 mph 19.6 mph N/A   Partly Cloudy
6:55 AM 8.6 °F -7.0 °F 3.2 °F 79% 30.12 in 10.0 mi NW 12.7 mph - N/A Snow Light Snow
7:15 AM 8.6 °F -6.3 °F 3.2 °F 79% 30.12 in 10.0 mi NNW 11.5 mph - N/A   Overcast
7:35 AM 6.8 °F -10.0 °F 1.4 °F 79% 30.13 in 10.0 mi NNW 13.8 mph - N/A   Overcast
7:55 AM 6.8 °F -10.7 °F 1.4 °F 79% 30.14 in 10.0 mi NW 15.0 mph - N/A   Scattered Clouds
8:15 AM 6.8 °F -12.4 °F 1.4 °F 79% 30.14 in 10.0 mi NW 18.4 mph - N/A   Clear
8:35 AM 6.8 °F -10.7 °F 1.4 °F 79% 30.14 in 10.0 mi NNW 15.0 mph - N/A   Scattered Clouds
8:55 AM 6.8 °F -10.7 °F -0.4 °F 72% 30.15 in 10.0 mi NNW 15.0 mph - N/A   Scattered Clouds
9:15 AM 6.8 °F -9.3 °F -0.4 °F 72% 30.15 in 10.0 mi NNW 12.7 mph - N/A   Partly Cloudy
9:35 AM 6.8 °F -10.0 °F 1.4 °F 79% 30.15 in 9.0 mi NNW 13.8 mph - N/A   Partly Cloudy
9:55 AM 8.6 °F -6.3 °F 1.4 °F 73% 30.15 in 10.0 mi NNW 11.5 mph - N/A   Clear
10:15 AM 8.6 °F -7.0 °F 1.4 °F 73% 30.15 in 10.0 mi NW 12.7 mph - N/A   Clear
10:35 AM 8.6 °F -6.3 °F 1.4 °F 73% 30.16 in 10.0 mi NW 11.5 mph - N/A   Clear
10:55 AM 10.4 °F -4.8 °F 1.4 °F 67% 30.16 in 10.0 mi NW 12.7 mph - N/A   Clear
11:15 AM 12.2 °F -1.0 °F 3.2 °F 67% 30.15 in 10.0 mi NNW 10.4 mph - N/A   Clear
11:35 AM 12.2 °F -0.2 °F 3.2 °F 67% 30.14 in 10.0 mi NW 9.2 mph - N/A   Clear
11:55 AM 12.2 °F -0.2 °F 3.2 °F 67% 30.14 in 10.0 mi NW 9.2 mph - N/A   Scattered Clouds
12:15 PM 14.0 °F 2.9 °F 5.0 °F 67% 30.14 in 10.0 mi WNW 8.1 mph - N/A   Scattered Clouds
12:35 PM 14.0 °F 1.2 °F 5.0 °F 67% 30.13 in 10.0 mi NW 10.4 mph - N/A   Scattered Clouds
12:55 PM 14.0 °F 2.0 °F 5.0 °F 67% 30.13 in 10.0 mi NW 9.2 mph - N/A   Mostly Cloudy
1:15 PM 15.8 °F 5.1 °F 5.0 °F 62% 30.12 in 10.0 mi WNW 8.1 mph - N/A   Partly Cloudy
1:35 PM 15.8 °F 5.1 °F 5.0 °F 62% 30.11 in 10.0 mi NW 8.1 mph - N/A   Scattered Clouds
1:55 PM 15.8 °F 4.2 °F 5.0 °F 62% 30.11 in 10.0 mi NW 9.2 mph - N/A   Mostly Cloudy
2:15 PM 15.8 °F 5.1 °F 5.0 °F 62% 30.11 in 10.0 mi NW 8.1 mph - N/A   Scattered Clouds
2:35 PM 15.8 °F 6.1 °F 6.8 °F 68% 30.10 in 7.0 mi NW 6.9 mph - N/A Snow Light Snow
2:55 PM 17.6 °F 12.3 °F 6.8 °F 63% 30.08 in 5.0 mi WNW 3.5 mph - N/A Snow Light Snow
3:15 PM 17.6 °F 10.7 °F 8.6 °F 68% 30.08 in 9.0 mi West 4.6 mph - N/A Snow Light Snow
3:35 PM 17.6 °F 12.3 °F 8.6 °F 68% 30.08 in 10.0 mi WSW 3.5 mph - N/A   Mostly Cloudy
3:55 PM 17.6 °F 9.3 °F 8.6 °F 68% 30.07 in 10.0 mi SW 5.8 mph - N/A   Overcast
4:15 PM 17.6 °F 7.3 °F 8.6 °F 68% 30.06 in 10.0 mi SW 8.1 mph - N/A   Overcast
4:35 PM 17.6 °F 7.3 °F 10.4 °F 73% 30.06 in 10.0 mi SW 8.1 mph - N/A   Overcast
4:55 PM 17.6 °F 8.2 °F 10.4 °F 73% 30.05 in 10.0 mi SSW 6.9 mph - N/A   Overcast
5:15 PM 17.6 °F 7.3 °F 10.4 °F 73% 30.04 in 9.0 mi SSW 8.1 mph - N/A Snow Light Snow
5:35 PM 17.6 °F 6.4 °F 12.2 °F 79% 30.04 in 3.0 mi SSW 9.2 mph - N/A Snow Light Snow
5:55 PM 17.6 °F 6.4 °F 12.2 °F 79% 30.03 in 2.0 mi SSW 9.2 mph - N/A Snow Light Snow
6:15 PM 17.6 °F 5.7 °F 14.0 °F 86% 30.02 in 2.5 mi South 10.4 mph - N/A Snow Light Snow
6:35 PM 17.6 °F 4.3 °F 14.0 °F 86% 30.00 in 7.0 mi South 12.7 mph - N/A   Overcast
6:55 PM 17.6 °F 5.7 °F 14.0 °F 86% 30.00 in 7.0 mi South 10.4 mph - N/A   Overcast
7:15 PM 17.6 °F 5.0 °F 14.0 °F 86% 30.00 in 7.0 mi South 11.5 mph - N/A   Overcast
7:35 PM 17.6 °F 4.3 °F 14.0 °F 86% 29.99 in 7.0 mi South 12.7 mph - N/A   Overcast
7:55 PM 17.6 °F 4.3 °F 15.8 °F 93% 29.98 in 5.0 mi South 12.7 mph - N/A   Overcast
8:15 PM 17.6 °F 3.2 °F 15.8 °F 93% 29.97 in 6.0 mi South 15.0 mph - N/A Snow Light Snow
8:35 PM 19.4 °F 6.0 °F 15.8 °F 86% 29.96 in 6.0 mi SSW 13.8 mph - N/A   Overcast
8:55 PM 19.4 °F 7.2 °F 15.8 °F 86% 29.95 in 4.0 mi SSW 11.5 mph - N/A Snow Light Snow
9:15 PM 19.4 °F 9.5 °F 17.6 °F 93% 29.95 in 3.0 mi SSW 8.1 mph 13.8 mph N/A Snow Light Snow
9:35 PM 21.2 °F 10.1 °F 17.6 °F 86% 29.94 in 5.0 mi SSW 10.4 mph - N/A Snow Light Snow
9:55 PM 23.0 °F 11.7 °F 19.4 °F 86% 29.93 in 10.0 mi SW 11.5 mph - N/A   Overcast
10:15 PM 23.0 °F 12.4 °F 21.2 °F 93% 29.93 in 10.0 mi SW 10.4 mph - N/A   Overcast
10:35 PM 24.8 °F 14.0 °F 23.0 °F 93% 29.93 in 9.0 mi WSW 11.5 mph - N/A   Overcast
10:55 PM 28.4 °F 15.1 °F 24.8 °F 86% 29.94 in 10.0 mi WNW 20.7 mph 31.1 mph N/A   Overcast
11:15 PM 30.2 °F 15.7 °F 24.8 °F 80% 29.94 in 6.0 mi NW 27.6 mph 35.7 mph N/A   Light Freezing Rain
11:35 PM 24.8 °F 7.6 °F 19.4 °F 80% 29.95 in 5.0 mi NW 31.1 mph 40.3 mph N/A   Light Freezing Rain
11:55 PM 24.8 °F 8.7 °F 17.6 °F 74% 29.96 in 7.0 mi NW 26.5 mph 39.1 mph N/A   Light Freezing Rain